Boise, ID

2:38 AM MDT on April 23, 2018 (GMT -0600)
Boise Air Term

Weather History for KBOI - October, 2011

Change the Weather History Date:

Saturday, October 29, 2011

  Actual Average Record
Temperature  
Mean Temperature 54 °F 48 °F  
Max Temperature 64 °F 58 °F 77 °F (1968)
Min Temperature 44 °F 37 °F 11 °F (1971)
Degree Days  
Heating Degree Days 11 17  
Month to date heating degree days 309 348  
Since 1 July heating degree days 319 469  
Cooling Degree Days 0 0  
Month to date cooling degree days 22 7  
Year to date cooling degree days 1076 941  
Growing Degree Days 4 (Base 50)    
Moisture  
Dew Point 33 °F    
Average Humidity 50    
Maximum Humidity 65    
Minimum Humidity 34    
Precipitation  
Precipitation 0.00 in 0.03 in 0.68 in (1982)
Month to date precipitation 1.76 0.68  
Year to date precipitation 9.77 8.76  
Snow  
Snow 0.00 in 0.00 in 2.10 in (1919)
Month to date snowfall 0.0 0.1  
Since 1 July snowfall 0.0 0.1  
Snow Depth 0.00 in    
Sea Level Pressure  
Sea Level Pressure 30.19 in    
Wind  
Wind Speed 4 mph (NNW)    
Max Wind Speed 16 mph    
Max Gust Speed 21 mph    
Visibility 10 miles    
Events      
T = Trace of Precipitation, MM = Missing Value Source: NWS Daily Summary

Daily Weather History Graph

Daily Weather History Graph

Search for Another Location

Airport or City:

Astronomy

Oct. 29, 2011 Rise Set
Actual Time 8:16 AM MDT 6:40 PM MDT
Civil Twilight 7:46 AM MDT 7:09 PM MDT
Nautical Twilight 7:13 AM MDT 7:43 PM MDT
Astronomical Twilight 6:39 AM MDT 8:16 PM MDT
Moon 11:48 AM MDT (10/29) 9:02 PM MDT (10/29)
Length of Visible Light 11h 23m
Length of Day
10h 23m
Waxing Crescent, 12% of the Moon is Illuminated
Oct 29
Waxing Crescent
Nov 2
First Quarter
Nov 10
Full
Nov 18
Last Quarter
Nov 24
New

Hourly Weather History & Observations

Time (MDT) Temp. Windchill Dew Point Humidity Pressure Visibility Wind Dir Wind Speed Gust Speed Precip Events Conditions
12:53 AM 46.9 °F - 26.1 °F 44% 30.10 in 10.0 mi SSW 4.6 mph - N/A   Partly Cloudy
1:53 AM 46.9 °F - 27.0 °F 46% 30.09 in 10.0 mi SE 5.8 mph - N/A   Overcast
2:53 AM 48.0 °F - 27.0 °F 44% 30.09 in 10.0 mi Calm Calm - N/A   Overcast
3:53 AM 46.4 °F - 30.2 °F 53% 30.12 in 10.0 mi Calm Calm - N/A   Overcast
4:53 AM 45.0 °F - 30.9 °F 58% 30.12 in 10.0 mi Calm Calm - N/A   Overcast
5:53 AM 46.0 °F - 33.1 °F 61% 30.13 in 10.0 mi Calm Calm - N/A   Overcast
6:53 AM 45.0 °F - 32.0 °F 60% 30.17 in 10.0 mi Calm Calm - N/A   Mostly Cloudy
7:53 AM 45.0 °F - 33.1 °F 63% 30.17 in 10.0 mi Calm Calm - N/A   Overcast
8:53 AM 45.0 °F - 34.0 °F 65% 30.19 in 9.0 mi Calm Calm - N/A   Scattered Clouds
9:53 AM 46.0 °F - 34.0 °F 63% 30.21 in 8.0 mi Calm Calm - N/A   Clear
10:53 AM 52.0 °F - 34.0 °F 50% 30.22 in 8.0 mi WNW 3.5 mph - N/A   Clear
11:53 AM 57.9 °F - 30.9 °F 36% 30.22 in 10.0 mi NNW 4.6 mph - N/A   Clear
12:53 PM 59.0 °F - 32.0 °F 36% 30.23 in 10.0 mi NW 9.2 mph - N/A   Clear
1:53 PM 62.1 °F - 34.0 °F 35% 30.20 in 10.0 mi WNW 10.4 mph - N/A   Clear
2:53 PM 63.0 °F - 36.0 °F 37% 30.18 in 10.0 mi NW 10.4 mph - N/A   Clear
3:53 PM 63.0 °F - 36.0 °F 37% 30.19 in 10.0 mi NW 15.0 mph 20.7 mph N/A   Clear
4:53 PM 63.0 °F - 35.1 °F 35% 30.19 in 10.0 mi NNW 10.4 mph - N/A   Clear
5:53 PM 62.6 °F - 33.8 °F 34% 30.21 in 10.0 mi North 9.2 mph - N/A   Clear
6:53 PM 57.0 °F - 34.0 °F 42% 30.21 in 10.0 mi NNW 5.8 mph - N/A   Clear
7:53 PM 54.0 °F - 35.1 °F 49% 30.22 in 10.0 mi NNE 5.8 mph - N/A   Clear
8:53 PM 50.0 °F - 34.0 °F 54% 30.24 in 10.0 mi Calm Calm - N/A   Clear
9:53 PM 48.9 °F - 34.0 °F 56% 30.24 in 10.0 mi Calm Calm - N/A   Clear
10:53 PM 46.0 °F 43.1 °F 34.0 °F 63% 30.26 in 10.0 mi SE 5.8 mph - N/A   Clear
11:53 PM 45.0 °F 41.8 °F 34.0 °F 65% 30.26 in 10.0 mi ESE 5.8 mph - N/A   Clear